Location: Caltech
(34.1382°N, 118.1253°W)
Time: 09:11:45
(UTC-08:00)

Gbstr 26 Del rocket - Visible Passes

Search period start: 13 February 2016 00:00
Search period end: 23 February 2016 00:00
Orbit: 493 x 1268 km, 51.8° (Epoch: 12 February)

Date Brightness Start Highest point End Pass type
(mag) Time Alt. Az. Time Alt. Az. Time Alt. Az.
13 Feb 5.4 04:12:04 20° NNE 04:13:03 21° NNE 04:17:19 10° ENE visible
13 Feb 3.9 05:55:12 10° NW 06:00:34 86° NE 06:07:16 10° SE visible
14 Feb 5.2 04:08:32 23° NNE 04:09:16 24° NNE 04:13:55 10° E visible
14 Feb 3.8 05:51:18 10° NW 05:56:37 76° SW 06:03:16 10° SE visible
15 Feb 5.0 04:05:05 28° NNE 04:05:26 29° NE 04:10:28 10° E visible
15 Feb 3.9 05:47:41 11° NW 05:52:41 59° SW 05:59:09 10° SSE visible
16 Feb 4.8 04:01:42 35° NE 04:01:42 35° NE 04:06:55 10° ESE visible
16 Feb 4.1 05:44:19 14° WNW 05:48:44 46° SW 05:54:56 10° SSE visible
17 Feb 4.6 03:58:25 40° ENE 03:58:25 40° ENE 04:03:18 10° ESE visible
17 Feb 4.5 05:41:03 16° WNW 05:44:47 35° SW 05:50:35 10° SSE visible
18 Feb 4.6 03:55:13 42° E 03:55:13 42° E 03:59:35 10° ESE visible
18 Feb 4.8 05:37:51 17° W 05:40:49 27° SW 05:46:03 10° S visible
19 Feb 4.8 03:52:07 36° ESE 03:52:07 36° ESE 03:55:46 10° SE visible
19 Feb 5.0 05:34:46 17° W 05:36:51 20° SW 05:41:19 10° S visible
19 Feb 4.8 18:45:04 10° SSE 18:46:31 13° SE 18:46:31 13° SE visible
20 Feb 5.2 03:49:07 27° SE 03:49:07 27° SE 03:51:52 10° SE visible
20 Feb 5.3 05:31:46 14° WSW 05:32:52 15° SW 05:36:12 10° SSW visible
20 Feb 4.3 18:40:04 10° S 18:43:01 19° SE 18:43:34 18° ESE visible
20 Feb 5.9 20:25:59 10° WSW 20:26:12 11° WSW 20:26:12 11° WSW visible
21 Feb 5.7 03:46:11 19° SE 03:46:11 19° SE 03:47:51 10° SE visible
21 Feb 5.6 05:28:50 11° SW 05:28:53 11° SW 05:30:02 10° SW visible
21 Feb 3.9 18:35:29 10° S 18:39:02 26° SE 18:40:33 21° E visible
21 Feb 5.7 20:22:22 10° W 20:23:12 15° W 20:23:12 15° W visible
22 Feb 6.1 03:43:19 12° SSE 03:43:19 12° SSE 03:43:44 10° SSE visible
22 Feb 3.4 18:31:08 10° SSW 18:35:05 38° SE 18:37:29 18° ENE visible
22 Feb 5.6 20:18:51 10° W 20:20:07 16° WNW 20:20:07 16° WNW visible
